Precipitable_Water
1.69 1.73 1.98 1.85 1.32 1.20 0.95 0.88 0.84 0.71 0.76 0.95 0.96 0.92 0.96 1.07 0.97 0.85 1.32 1.48 1.71 1.77 1.82 1.84 1.81 1.76 1.75 1.73 1.81 1.83 1.79 1.77 1.82 1.90 1.99 2.00 1.88 1.79 1.76 1.86 1.79 1.64 1.88 1.91 1.92 1.75 1.79 1.77 1.74
1.78 1.94 1.96 1.68 1.15 0.94 0.91 0.97 0.74 0.81 0.90 0.92 1.01 1.05 1.06 0.96 1.19 1.17 1.24 1.48 1.70 1.77 1.87 1.92 1.80 1.73 1.84 1.81 1.75 1.71 1.77 1.77 1.78 1.82 2.03 2.06 1.92 1.81 1.74 1.83 1.72 1.57 1.61 1.59 1.78 1.75 1.73 1.62 1.76
1.85 1.98 1.67 1.43 1.14 0.97 0.94 1.01 0.74 0.93 1.01 1.04 1.05 1.26 1.17 1.00 1.10 1.21 1.37 1.53 1.70 1.79 1.89 1.80 1.72 1.68 1.68 1.77 1.81 1.73 1.75 1.79 1.77 1.88 2.01 2.09 1.94 1.86 1.77 1.87 1.81 1.80 1.77 1.84 1.83 1.77 1.69 1.67 1.74
1.80 1.73 1.66 1.27 1.08 1.21 1.14 1.02 0.92 0.89 1.06 1.23 1.17 1.02 1.24 1.30 1.18 1.35 1.48 1.58 1.65 1.76 1.88 1.80 1.74 1.73 1.61 1.52 1.49 1.48 1.55 1.61 1.65 1.75 2.01 2.05 1.99 1.91 1.80 1.86 1.91 1.94 1.96 1.96 1.90 1.67 1.63 1.69 1.60
1.87 1.69 1.27 1.19 1.19 1.27 1.26 1.08 1.04 0.92 1.03 1.16 1.22 1.01 0.97 1.24 1.37 1.41 1.53 1.63 1.63 1.77 1.84 1.96 1.88 1.95 1.80 1.57 1.64 1.59 1.48 1.67 1.72 1.71 1.90 2.05 2.00 2.02 1.78 1.87 1.94 1.97 1.87 1.78 1.76 1.69 1.64 1.58 1.51
1.51 1.56 1.14 1.04 1.16 1.34 1.33 1.26 1.10 1.03 1.11 1.16 1.11 0.98 1.02 1.33 1.30 1.43 1.60 1.65 1.71 1.75 1.89 1.92 1.76 1.75 1.75 1.68 1.68 1.78 1.71 1.89 1.86 1.74 1.80 2.00 2.00 1.85 1.82 1.80 1.84 1.98 1.92 1.79 1.72 1.67 1.57 1.53 1.50
1.47 1.33 1.14 1.16 1.19 1.25 1.32 1.43 1.11 1.11 1.11 1.11 1.20 0.92 1.12 1.23 1.43 1.53 1.60 1.67 1.69 1.72 1.80 1.73 1.71 1.83 1.87 1.74 1.73 1.83 1.91 1.84 1.84 1.75 1.80 1.95 1.98 1.84 1.73 1.72 1.76 1.87 1.83 1.78 1.73 1.62 1.60 1.59 1.45
1.54 1.38 1.19 1.26 1.16 1.20 1.48 1.35 1.31 1.20 1.14 1.33 1.28 0.95 0.94 1.24 1.47 1.54 1.61 1.63 1.62 1.63 1.73 1.76 1.77 1.94 1.81 1.85 1.85 1.86 1.88 1.86 1.84 1.85 1.83 1.96 1.95 1.81 1.63 1.64 1.77 1.79 1.83 1.83 1.78 1.70 1.60 1.52 1.47
1.60 1.15 1.05 1.21 1.31 1.34 1.53 1.21 1.38 1.40 1.27 1.22 1.26 1.13 1.22 1.31 1.42 1.41 1.44 1.45 1.47 1.54 1.63 1.82 1.68 1.75 1.82 1.85 1.84 1.86 1.84 1.77 1.78 1.80 1.81 2.02 2.01 1.92 1.96 1.77 1.79 1.78 1.77 1.80 1.87 1.75 1.54 1.52 1.47
1.32 1.12 1.16 1.40 1.45 1.46 1.42 1.29 1.20 1.15 1.14 1.14 1.10 1.27 1.29 1.22 1.25 1.17 1.20 1.22 1.37 1.50 1.60 1.71 1.67 1.75 1.82 1.87 2.01 1.94 1.84 1.70 1.82 1.79 1.86 2.06 2.07 2.11 1.94 1.74 1.80 1.76 1.77 1.80 1.83 1.69 1.57 1.62 1.52
1.27 1.11 1.32 1.49 1.58 1.52 1.46 1.31 1.32 1.13 1.01 1.05 0.95 1.09 1.13 1.09 1.14 1.07 1.19 1.32 1.45 1.57 1.60 1.66 1.65 1.69 1.83 1.91 1.92 1.86 1.66 1.58 1.70 1.80 1.85 2.02 2.04 2.02 1.85 1.76 1.82 1.78 1.79 1.81 1.78 1.67 1.57 1.45 1.50
1.12 1.32 1.35 1.65 1.69 1.51 1.41 1.42 1.23 1.18 1.02 1.09 1.15 1.13 1.03 1.03 1.04 1.04 1.19 1.34 1.48 1.55 1.62 1.66 1.67 1.70 1.83 1.82 1.86 1.61 1.45 1.50 1.60 1.70 1.85 1.95 1.96 1.79 1.75 1.74 1.81 1.76 1.73 1.72 1.64 1.50 1.43 1.47 1.59
1.16 1.24 1.41 1.55 1.58 1.60 1.59 1.46 1.25 1.05 1.11 1.07 1.16 1.08 0.96 1.01 1.04 1.13 1.24 1.39 1.53 1.53 1.61 1.68 1.67 1.69 1.77 1.93 1.75 1.53 1.45 1.53 1.59 1.69 1.84 1.91 1.78 1.75 1.81 1.85 1.77 1.71 1.76 1.69 1.54 1.45 1.45 1.46 1.55
1.11 1.24 1.37 1.53 1.57 1.65 1.51 1.42 1.42 1.21 1.16 1.00 1.02 0.98 0.98 1.00 1.05 1.12 1.18 1.32 1.47 1.57 1.62 1.70 1.66 1.68 1.74 1.87 1.74 1.60 1.57 1.59 1.62 1.65 1.75 1.84 1.80 1.82 1.85 1.78 1.67 1.71 1.77 1.72 1.56 1.46 1.43 1.42 1.51
1.13 1.01 1.32 1.48 1.53 1.50 1.60 1.34 1.38 1.26 1.11 0.90 0.92 0.99 1.03 1.07 1.12 1.09 1.17 1.28 1.45 1.61 1.68 1.66 1.66 1.67 1.75 1.80 1.69 1.59 1.55 1.60 1.58 1.63 1.71 1.79 1.83 1.88 1.87 1.79 1.71 1.66 1.69 1.68 1.49 1.38 1.37 1.34 1.39
0.96 0.97 1.01 1.44 1.53 1.54 1.48 1.13 1.44 1.28 0.98 0.85 0.96 1.01 1.06 1.10 1.15 1.17 1.19 1.34 1.49 1.68 1.70 1.70 1.68 1.71 1.77 1.77 1.74 1.67 1.66 1.63 1.61 1.65 1.71 1.80 1.84 1.86 1.86 1.73 1.63 1.65 1.66 1.54 1.42 1.40 1.40 1.38 1.39
0.86 0.72 0.97 1.19 1.53 1.37 1.43 1.18 1.43 1.39 1.26 1.06 0.96 0.99 1.11 1.17 1.23 1.24 1.23 1.34 1.46 1.63 1.79 1.77 1.76 1.70 1.71 1.81 1.88 1.83 1.82 1.72 1.64 1.67 1.73 1.79 1.77 1.77 1.74 1.71 1.61 1.65 1.62 1.50 1.46 1.46 1.53 1.41 1.44
0.61 0.64 0.96 1.11 1.34 1.37 1.32 1.26 1.45 1.48 1.39 1.16 1.06 1.08 1.12 1.17 1.22 1.31 1.33 1.46 1.40 1.53 1.72 1.87 1.85 1.85 1.80 1.84 1.87 1.82 1.83 1.74 1.69 1.63 1.67 1.72 1.77 1.72 1.73 1.71 1.65 1.68 1.58 1.47 1.48 1.48 1.46 1.47 1.45
0.63 0.61 0.93 1.13 1.41 1.32 1.26 1.23 1.37 1.56 1.42 1.22 1.13 1.09 1.14 1.19 1.33 1.38 1.47 1.43 1.46 1.49 1.58 1.74 1.90 1.91 1.84 1.79 1.71 1.72 1.67 1.74 1.72 1.72 1.71 1.64 1.70 1.73 1.76 1.74 1.65 1.69 1.60 1.52 1.49 1.43 1.36 1.36 1.44
0.71 0.64 0.91 1.18 1.34 1.22 1.20 1.15 1.33 1.49 1.39 1.33 1.19 1.10 1.16 1.19 1.28 1.38 1.46 1.43 1.46 1.51 1.54 1.64 1.85 1.94 1.90 1.88 1.84 1.79 1.73 1.75 1.77 1.78 1.77 1.79 1.72 1.73 1.73 1.73 1.66 1.69 1.61 1.52 1.49 1.47 1.33 1.34 1.44
0.84 0.77 0.83 0.93 1.12 1.19 1.10 1.08 1.21 1.46 1.46 1.34 1.20 1.23 1.16 1.23 1.24 1.31 1.39 1.41 1.44 1.47 1.55 1.57 1.63 1.93 1.90 1.83 1.87 1.78 1.79 1.74 1.70 1.72 1.71 1.76 1.80 1.76 1.71 1.71 1.71 1.59 1.70 1.53 1.53 1.47 1.38 1.28 1.40
0.58 0.75 0.89 0.92 0.87 0.79 1.07 0.75 1.08 1.30 1.38 1.33 1.16 1.14 1.17 1.18 1.22 1.33 1.34 1.39 1.43 1.45 1.58 1.57 1.60 1.69 1.90 1.95 1.77 1.73 1.62 1.53 1.58 1.63 1.73 1.75 1.78 1.72 1.68 1.80 1.67 1.62 1.70 1.58 1.53 1.53 1.44 1.50 1.32
0.57 0.75 0.84 0.87 0.81 0.81 0.84 0.75 0.89 1.23 1.19 1.27 1.26 1.13 1.10 1.14 1.16 1.25 1.33 1.40 1.50 1.50 1.50 1.53 1.54 1.61 1.74 1.91 2.01 1.79 1.69 1.59 1.64 1.63 1.68 1.72 1.80 1.73 1.67 1.80 1.70 1.69 1.63 1.62 1.58 1.54 1.48 1.43 1.47
0.64 0.71 0.77 0.76 0.77 0.54 0.69 0.71 0.81 0.99 1.09 1.26 1.40 1.32 1.15 1.11 1.13 1.24 1.34 1.46 1.53 1.54 1.50 1.50 1.46 1.49 1.60 1.79 1.92 1.88 1.78 1.71 1.61 1.63 1.60 1.59 1.62 1.70 1.70 1.72 1.73 1.71 1.69 1.60 1.59 1.58 1.54 1.50 1.46
0.66 0.67 0.51 0.46 0.46 0.46 0.64 0.58 0.78 1.01 1.10 1.20 1.28 1.41 1.41 1.12 1.09 1.16 1.29 1.40 1.46 1.47 1.49 1.45 1.46 1.44 1.52 1.58 1.70 1.88 1.85 1.88 1.72 1.68 1.62 1.56 1.62 1.63 1.68 1.71 1.70 1.63 1.62 1.63 1.61 1.52 1.54 1.50 1.48
0.55 0.62 0.48 0.38 0.40 0.45 0.66 0.52 0.71 1.04 1.16 1.24 1.37 1.50 1.58 1.41 1.15 1.19 1.29 1.42 1.47 1.49 1.54 1.47 1.41 1.44 1.49 1.53 1.56 1.75 1.96 1.98 1.84 1.80 1.82 1.71 1.72 1.61 1.65 1.66 1.61 1.63 1.66 1.65 1.66 1.54 1.52 1.56 1.50
0.42 0.48 0.62 0.49 0.49 0.46 0.56 0.67 0.87 1.03 1.08 1.18 1.29 1.47 1.56 1.55 1.37 1.30 1.34 1.46 1.56 1.56 1.58 1.55 1.48 1.45 1.49 1.50 1.58 1.62 1.77 1.98 1.98 1.92 1.83 1.83 1.86 1.79 1.74 1.74 1.79 1.78 1.70 1.64 1.59 1.54 1.46 1.58 1.53
0.34 0.54 0.47 0.47 0.36 0.35 0.51 0.54 0.68 0.84 0.97 1.12 1.23 1.34 1.53 1.61 1.51 1.50 1.49 1.48 1.56 1.61 1.75 1.75 1.68 1.48 1.50 1.52 1.57 1.55 1.62 1.77 1.98 2.00 1.90 1.96 1.90 1.86 1.85 1.78 1.74 1.74 1.63 1.61 1.55 1.52 1.54 1.52 1.58
0.29 0.29 0.37 0.42 0.37 0.37 0.37 0.48 0.85 0.89 1.01 1.09 1.23 1.31 1.40 1.48 1.52 1.60 1.64 1.65 1.64 1.73 1.84 1.76 1.83 1.61 1.53 1.58 1.61 1.61 1.61 1.68 1.85 1.95 1.97 2.08 2.06 1.92 1.82 1.78 1.79 1.71 1.67 1.65 1.56 1.55 1.57 1.51 1.47
0.33 0.28 0.31 0.29 0.36 0.39 0.50 0.65 0.94 0.95 1.06 1.18 1.26 1.40 1.48 1.52 1.58 1.64 1.70 1.73 1.77 1.79 1.82 1.88 1.99 1.93 1.68 1.61 1.63 1.62 1.71 1.65 1.70 1.80 1.97 2.06 1.99 2.05 1.98 1.86 1.77 1.77 1.79 1.79 1.72 1.60 1.53 1.44 1.39
Wind_Speed
1 2 1 2 1 2 6 7 10 14 15 10 14 10 10 9 6 8 17 15 16 15 14 13 13 13 13 13 13 13 13 13 13 14 13 14 14 15 15 15 15 16 16 16 16 16 16 15 15
2 1 2 1 2 6 8 9 13 12 14 18 11 12 9 9 9 17 16 17 16 15 13 12 12 12 12 12 11 11 11 12 12 12 13 13 14 15 15 15 16 16 15 16 15 15 15 14 14
2 1 2 1 2 7 9 10 13 14 17 14 10 9 7 9 16 14 17 17 15 14 13 12 11 11 10 10 10 10 10 10 10 11 11 12 14 14 15 15 15 15 15 14 14 14 14 14 14
0 1 1 1 6 8 9 11 15 17 16 9 12 10 9 11 14 15 17 17 15 13 12 12 11 11 10 9 9 9 9 9 9 10 11 12 13 13 14 14 14 14 13 13 13 13 14 14 13
1 3 1 3 6 10 10 12 15 16 14 12 8 10 12 12 14 17 16 16 14 13 12 11 10 10 10 10 10 10 10 10 10 10 11 11 12 13 13 13 13 13 14 14 14 14 14 13 13
1 3 3 3 9 11 12 10 15 13 14 12 12 15 12 14 17 16 15 15 14 12 11 10 10 10 10 10 11 11 10 10 10 10 11 11 12 12 13 13 13 14 14 14 14 13 13 13 12
2 2 2 1 10 12 11 10 12 13 14 11 13 13 12 15 16 16 15 14 13 12 11 10 10 10 11 11 10 10 10 10 10 11 11 11 12 13 14 14 14 14 14 14 13 13 12 12 12
3 3 2 2 10 11 11 12 11 13 11 12 13 9 14 16 16 16 15 14 12 11 10 10 10 10 10 11 10 10 10 10 10 11 12 12 13 14 14 14 13 13 13 13 12 12 12 12 12
4 4 3 2 7 15 15 14 12 11 14 10 9 12 18 17 17 16 15 14 12 11 10 10 10 10 11 11 11 11 10 10 11 12 12 12 13 13 13 13 13 13 12 12 12 13 12 13 14
4 3 3 3 4 14 19 14 15 14 13 13 14 17 19 18 17 16 15 14 12 11 10 10 10 11 11 11 11 10 10 10 11 12 13 13 13 12 12 13 12 12 12 12 12 12 13 13 13
4 1 2 3 8 18 17 15 13 14 13 15 18 21 20 19 17 16 14 13 12 11 11 10 11 11 11 11 11 10 10 10 11 13 13 13 13 11 11 13 12 11 11 11 11 11 12 13 14
5 1 5 3 11 15 20 15 13 11 11 16 19 21 21 19 17 16 14 13 12 12 11 11 11 11 11 12 10 10 11 11 13 14 14 13 12 12 13 13 13 12 11 11 12 13 13 13 14
5 3 4 7 13 18 19 15 12 12 14 19 22 21 20 18 17 15 14 13 12 12 11 11 11 11 12 11 11 12 12 12 14 14 14 13 13 13 14 13 12 11 11 11 12 13 13 14 14
7 6 6 9 12 16 18 14 11 14 19 22 22 21 19 18 16 15 14 13 12 11 11 11 11 12 11 11 12 12 12 13 14 14 14 14 14 13 14 13 12 11 11 11 11 11 12 12 13
9 7 6 9 11 18 18 12 12 17 21 22 21 20 19 17 16 15 14 13 13 11 11 11 11 12 11 12 12 12 13 13 14 14 14 14 14 13 12 12 11 11 11 11 11 11 11 12 12
12 8 7 9 14 16 14 17 14 19 22 22 21 20 19 17 16 15 14 13 13 12 12 12 12 12 12 12 12 12 13 13 13 14 14 14 13 12 12 11 11 11 11 11 11 11 11 11 11
14 10 10 10 13 16 14 15 17 17 19 21 21 21 19 17 16 15 15 14 13 12 12 12 12 12 12 12 12 12 12 12 13 13 13 13 12 12 12 11 11 10 10 10 11 10 10 11 11
15 12 13 11 13 16 13 11 18 17 19 22 21 21 20 18 16 16 15 14 13 12 12 12 12 12 12 12 12 12 12 12 12 13 13 12 11 11 11 10 10 9 9 10 10 9 10 10 10
10 13 12 11 14 13 10 10 14 18 22 23 22 22 20 19 17 16 15 15 14 12 13 12 12 12 12 11 11 11 11 10 11 12 12 11 11 11 10 10 9 9 9 9 9 9 9 9 9
14 14 12 10 14 10 10 9 12 17 26 25 24 23 21 20 19 17 16 15 15 13 12 13 12 12 11 10 10 10 10 10 10 11 11 11 10 10 9 9 9 10 10 9 8 8 8 9 8
14 14 16 13 14 11 11 6 9 17 25 24 25 24 23 21 20 19 17 16 15 14 13 13 12 12 11 10 11 11 10 10 10 10 10 10 10 10 9 9 9 10 9 9 8 8 8 8 8
16 12 13 15 15 9 14 5 9 19 23 23 25 25 25 23 22 20 19 18 16 15 14 13 13 12 12 11 11 10 9 9 8 9 9 10 10 10 10 9 10 10 9 9 8 8 7 7 8
11 15 14 16 11 10 11 7 7 19 21 24 24 26 25 24 24 22 21 19 17 16 15 14 14 13 13 12 10 9 8 8 8 8 9 9 9 10 10 10 10 10 9 9 8 7 7 8 7
16 17 14 13 11 13 13 11 12 16 24 24 27 26 26 25 25 23 21 20 19 17 16 15 15 14 13 12 11 10 9 8 7 8 8 8 9 10 10 10 10 10 9 9 8 8 8 7 8
23 21 15 15 14 9 10 12 4 18 14 20 28 29 27 26 26 25 22 20 20 19 17 16 16 15 14 13 12 11 9 8 8 8 8 8 9 9 10 10 10 10 10 9 9 9 9 8 8
27 25 17 16 15 15 10 12 9 13 17 16 20 27 29 27 27 26 24 22 21 20 19 17 16 16 15 14 12 12 10 9 8 8 7 8 8 8 9 10 10 10 10 10 9 9 10 10 9
26 28 23 18 14 15 12 13 10 13 15 18 19 25 30 29 28 26 25 23 22 22 20 18 17 16 16 15 13 13 12 11 9 9 8 8 8 8 9 10 10 9 9 9 10 10 10 10 10
23 26 24 18 16 17 13 16 8 14 14 16 18 23 26 28 28 27 25 24 23 23 21 20 18 17 17 16 15 14 13 13 12 11 9 9 9 9 9 9 10 9 9 9 9 10 11 11 11
25 24 26 22 21 14 16 13 10 10 13 17 20 20 21 28 28 28 26 25 24 23 22 22 19 18 18 18 17 15 15 14 13 12 11 10 10 10 9 10 9 9 9 9 9 9 10 11 12
29 26 26 23 20 19 11 7 10 12 13 17 19 18 20 23 25 26 26 25 25 24 23 23 21 20 20 19 19 18 16 16 15 15 13 12 10 11 10 10 10 10 10 10 10 10 10 12 12
Wind_Direction
107 108 44 163 200 142 121 111 119 123 130 126 123 117 97 75 85 99 133 131 130 126 124 121 116 115 113 112 110 109 106 102 99 97 99 97 96 96 98 100 101 104 100 99 98 96 96 95 95
129 89 28 213 200 149 124 122 130 129 129 131 118 121 108 87 97 124 129 133 130 127 124 122 120 119 116 115 113 112 109 107 104 99 98 101 100 99 100 101 102 103 103 100 97 95 94 93 93
138 8 346 350 195 151 137 129 136 131 134 129 117 106 93 97 121 123 131 132 130 127 124 123 121 121 120 120 117 116 114 114 110 104 100 104 103 103 104 102 103 102 103 101 97 96 92 92 92
132 341 347 116 141 144 140 143 139 138 138 129 125 105 101 118 124 128 132 132 129 126 123 123 121 121 119 121 121 121 121 119 118 114 107 105 105 106 108 106 103 101 101 101 99 96 93 93 92
20 0 288 156 128 150 132 138 145 146 144 134 128 112 116 124 126 131 132 133 130 126 123 123 120 123 119 119 120 119 121 120 120 121 115 109 110 111 111 108 104 100 98 101 97 95 92 91 91
298 353 37 204 176 153 146 143 152 149 145 134 123 120 115 129 132 134 134 133 130 126 122 123 121 120 121 118 119 118 119 118 119 120 120 116 110 114 116 112 106 101 98 97 95 93 90 89 90
257 341 15 113 169 171 162 161 162 153 155 145 140 126 128 139 136 137 137 134 131 126 123 122 122 122 119 120 120 119 120 120 120 121 123 120 113 114 117 114 110 106 102 96 92 91 90 89 90
251 280 272 187 193 183 170 164 162 161 149 149 146 146 144 143 139 137 138 135 132 128 123 122 124 122 122 121 119 118 120 121 123 123 126 123 119 117 116 115 111 109 104 96 90 89 91 89 90
252 257 281 265 195 190 175 166 161 164 158 162 159 151 146 144 140 138 137 135 132 128 125 124 124 124 123 123 122 119 118 120 124 125 127 128 126 123 118 118 114 111 104 97 91 88 89 92 90
234 261 313 306 178 179 170 163 157 157 155 154 145 141 147 146 144 141 140 137 134 129 125 123 126 126 125 122 122 119 119 123 126 130 129 122 129 121 122 124 118 112 106 98 92 90 91 92 93
203 266 338 295 181 161 169 159 162 163 161 160 154 152 152 150 148 145 142 138 134 131 125 124 126 128 126 124 122 118 118 123 127 130 130 127 127 123 124 130 123 116 109 103 95 94 94 96 97
180 191 4 145 157 172 168 163 153 167 155 160 158 153 152 153 151 148 145 141 135 134 129 123 126 129 127 125 119 118 117 123 128 132 132 128 125 121 121 127 122 115 112 105 98 96 99 102 101
213 193 63 145 147 157 168 158 162 156 155 153 153 154 153 154 153 149 146 144 139 135 131 127 127 128 129 127 120 116 118 121 127 131 132 129 126 122 122 122 120 116 115 110 105 102 101 102 103
193 170 127 145 157 164 161 166 166 158 154 152 156 157 156 156 156 153 150 147 145 139 135 131 130 130 129 128 126 121 119 123 127 131 133 130 129 125 124 122 118 115 115 113 113 110 107 105 106
182 178 150 160 158 161 161 167 154 161 159 158 160 159 158 158 157 157 154 151 149 143 137 134 133 133 130 127 130 126 124 124 128 131 135 133 131 129 127 125 122 116 115 117 116 114 114 112 109
194 189 182 165 162 167 170 167 159 165 164 164 165 163 161 160 159 158 156 152 151 146 140 138 134 134 134 131 132 131 130 127 129 133 134 137 134 133 131 130 125 121 119 118 118 116 116 116 114
201 198 178 156 171 155 176 160 172 168 177 173 172 170 168 165 162 161 159 156 155 151 147 141 138 135 134 134 133 135 134 134 133 137 138 137 137 135 135 133 129 128 125 121 122 119 119 121 119
199 205 188 176 170 164 175 161 182 190 187 176 176 174 173 171 169 165 164 160 158 157 153 150 145 140 138 135 132 135 133 136 141 142 143 144 141 140 141 138 137 136 132 129 126 121 122 126 125
217 210 187 181 175 167 164 166 188 196 191 185 181 178 178 176 173 169 168 167 164 161 161 157 152 150 146 143 142 141 143 140 143 150 152 150 149 147 145 146 146 142 139 134 133 130 127 129 130
210 206 170 172 178 186 189 196 191 193 196 193 189 186 186 183 180 177 174 174 174 169 168 168 161 157 154 151 147 147 146 147 146 150 153 157 156 158 154 153 153 151 147 142 137 135 136 134 133
205 204 190 189 190 202 191 187 192 189 189 195 194 194 192 189 186 184 182 179 179 178 175 175 171 166 161 154 150 148 149 150 153 158 161 163 164 166 164 162 159 160 157 153 145 142 142 142 143
198 207 195 187 194 211 206 208 206 186 190 194 195 195 195 193 191 190 189 187 185 184 181 178 177 173 171 164 157 151 151 154 157 161 164 167 170 169 169 165 164 164 164 163 159 151 148 152 150
200 199 197 196 215 192 204 207 186 182 196 199 200 197 196 195 193 192 191 191 189 187 186 183 181 179 176 175 170 166 161 157 157 161 164 172 173 175 174 172 172 171 171 171 170 166 160 157 156
206 197 199 205 220 225 207 235 197 197 205 203 203 201 198 198 195 195 194 191 193 190 188 187 186 185 182 182 180 174 168 165 161 162 165 170 174 177 180 181 182 183 180 180 183 182 178 171 171
205 199 203 212 215 229 209 220 209 203 191 201 201 200 200 198 196 195 195 194 195 193 191 191 191 191 190 188 189 187 184 180 178 171 171 173 175 179 183 187 188 188 191 191 191 193 191 189 189
210 209 213 216 218 220 209 222 214 206 210 208 204 202 201 198 197 197 197 199 195 196 194 194 195 196 196 196 196 196 194 189 185 187 180 179 180 183 185 186 188 192 196 199 201 202 202 204 203
207 217 222 244 229 234 207 213 211 216 215 212 202 196 202 201 199 199 200 201 198 198 198 198 200 202 202 203 203 204 204 202 199 195 194 193 190 191 190 194 197 200 202 206 209 211 209 210 212
218 210 214 221 218 225 206 223 208 211 206 200 197 194 198 202 202 201 202 202 202 204 205 205 207 207 208 209 210 210 212 211 209 205 205 207 205 200 198 201 203 206 208 210 212 215 216 217 220
210 216 217 227 227 235 226 221 211 199 208 196 190 193 193 199 202 203 203 203 205 204 206 207 210 211 215 216 214 216 216 216 216 217 213 211 205 204 205 205 205 207 212 216 217 219 219 224 228
212 214 213 220 211 229 245 208 214 210 204 204 198 197 199 200 199 201 201 203 206 209 211 214 221 220 220 219 219 221 222 221 222 222 220 218 215 216 215 212 215 218 220 222 225 227 229 230 233